Regional Weather Roundup
Issued by NWS

Current Version | Previous Version | Text Only | Print | Product List | Glossary On
Versions: 1 2 3 4 5 6 7 8 9 10 11 12 13 14 15 16 17 18 19 20 21 22 23 24 25 26 27 28 29 30 31 32 33 34 35 36 37 38 39 40 41 42 43 44 45 46 47 48 49 50
000
ASUS45 KPSR 270510
RWRAZ

ARIZONA REGIONAL HOURLY WEATHER ROUNDUP
NATIONAL WEATHER SERVICE PHOENIX AZ
1000 PM MST FRI DEC 26 2014

NOTE: FAIR INDICATES FEW OR NO CLOUDS BELOW 12,000 FEET WITH NO
SIGNIFICANT WEATHER AND/OR OBSTRUCTIONS TO VISIBILITY.

AZZ001>003-036-270600-
NORTHWEST ARIZONA

CITY           SKY/WX    TMP DP  RH WIND       PRES   REMARKS
BULLHEAD CITY  CLEAR     46  16  29 CALM      30.21R
KINGMAN        CLEAR     27  13  55 E3        30.14R
$$

AZZ004>008-015-016-018-270600-
NORTH CENTRAL ARIZONA

CITY           SKY/WX    TMP DP  RH WIND       PRES   REMARKS
GRAND CANYON   CLEAR     13   8  81 NE7       30.06R WCI   3
PRESCOTT       CLEAR     25  12  58 W7        30.08R WCI  17
FLAGSTAFF      CLEAR     13   7  77 CALM      30.02R
PAYSON         CLEAR     28  16  59 NW3       30.07R
PAGE           CLOUDY    33   6  32 W7        30.10R WCI  27
$$

AZZ009>014-017-270600-
NORTHEAST ARIZONA

CITY           SKY/WX    TMP DP  RH WIND       PRES   REMARKS
WINSLOW        MOCLDY    30  13  49 NW9       30.07R WCI  22
SAINT JOHNS    CLOUDY    25  19  78 S3        30.03R
WINDOW ROCK    CLEAR      9   5  84 CALM      30.03R
SHOW LOW       CLOUDY    23  10  58 E3        30.05R
$$

AZZ023-270600-
GREATER PHOENIX AREA

CITY           SKY/WX    TMP DP  RH WIND       PRES   REMARKS
PHOENIX        CLEAR     46  25  43 E5        30.09R
BUCKEYE          N/A     34  23  64 NW5       30.12R WCI  30
LUKE AFB       CLEAR     41  24  51 NE5       30.10R
DEER VALLEY    CLEAR     37  24  59 E3        30.08S
SCOTTSDALE     CLEAR     43  23  45 CALM      30.11R
MESA-GATEWAY   CLEAR     37  21  52 E6        30.12R WCI  33
$$

AZZ027-028-270600-
SOUTHWEST MARICOPA COUNTY AND PINAL COUNTY

CITY           SKY/WX    TMP DP  RH WIND       PRES   REMARKS
CASA GRANDE    CLEAR     39  19  45 CALM      30.10S
GILA BEND      FAIR      39  22  49 S6        30.13R WCI  35
$$

AZZ503-504-507>509-270600-
SOUTHEAST ARIZONA

CITY           SKY/WX    TMP DP  RH WIND       PRES   REMARKS
TUCSON         CLEAR     37  24  59 SW6       30.10R WCI  32
DAVIS-MONTHAN  CLEAR     36  24  62 SW3       30.08R
NOGALES        CLEAR     29  16  58 E3        30.05R
SIERRA VISTA   CLEAR     32  14  47 SW10      30.05R WCI  24
DOUGLAS        CLEAR     29  18  63 N8        30.05R WCI  21
SAFFORD        CLEAR     34  19  54 NW9       30.05R WCI  27
$$

AZZ020-021-025-026-031-270600-
SOUTHWEST ARIZONA

CITY           SKY/WX    TMP DP  RH WIND       PRES   REMARKS
YUMA           CLEAR    N/A N/A N/A NW6       30.17R
$$

CAZ031-033-041-043-047-048-061-270600-
SOUTHERN CALIFORNIA

CITY           SKY/WX    TMP DP  RH WIND       PRES   REMARKS
DOWNTOWN L.A.  CLEAR     51  27  39 E6        30.17R
L.A. AIRPORT   CLEAR     51  22  31 E9        30.17R
SAN DIEGO      CLEAR     53  33  46 CALM      30.17R
BURBANK        CLEAR     49  15  25 W3        30.16R
ONTARIO        CLEAR     53  11  18 NE22G33   30.17R
RIVERSIDE      CLEAR     52  12  20 N7        30.20R
PALM SPRINGS   CLEAR     52  12  20 SW5       30.24R
EL CENTRO NAS  CLEAR     40  14  34 W8        30.19R WCI  34
IMPERIAL       CLEAR     41  21  44 W7        30.19R
BLYTHE         CLEAR     47  14  26 NW8       30.18R
NEEDLES        CLEAR     46  11  24 NW10      30.18R
$$

NVZ020-UTZ003-270600-
SOUTHERN NEVADA-UTAH

CITY           SKY/WX    TMP DP  RH WIND       PRES   REMARKS
LAS VEGAS      CLEAR     44   9  23 NW13      30.18R
SALT LAKE CITY MOCLDY    24  18  77 CALM      30.20R
$$

NMZ009-TXZ055-270600-
NEW MEXICO-WEST TEXAS

CITY           SKY/WX    TMP DP  RH WIND       PRES   REMARKS
ALBUQUERQUE    CLEAR     26  12  55 SE3       30.06R
EL PASO        CLOUDY    37  34  89 S14       30.04R WCI  28
$$


........................KEY........................
SKY/WX - SKY CONDITION/WEATHER
TMP    - TEMPERATURE IN FAHRENHEIT
DP     - DEW POINT IN FAHRENHEIT
RH     - RELATIVE HUMIDITY IN PERCENT
WIND   - DIRECTION AND SPEED IN MILES PER HOUR (MPH)
VRB    - VARIABLE WIND DIRECTION
PRES   - MEAN SEA LEVEL PRESSURE IN INCHES OF MERCURY
         F - FALLING PRESSURE   R - RISING PRESSURE
         S - STEADY PRESSURE
VSB    - VISIBILITY IN MILES
HX     - HEAT INDEX IN FAHRENHEIT
WCI    - WIND CHILL INDEX IN FAHRENHEIT
TC     - TEMPERATURE IN CELSIUS WHICH IS ALSO KNOWN AS
         TEMPERATURE IN CENTIGRADE
AFB    - AIR FORCE BASE
         LUKE AFB IS LUKE AIR FORCE BASE
         DAVIS-MONTHAN IS DAVIS-MONTHAN AIR FORCE BASE
NAS    - NAVAL AIR STATION
         EL CENTRO NAS IS EL CENTRO NAVAL AIR STATION
N/A    - NOT AVAILABLE


USA.gov is the U.S. government's official web portal to all federal, state and local government web resources and services.